Location: Unspecified
(51.0950°N, 12.9690°E)
Time: 19:54:37
(UTC+00:00)

BUGSAT 1 - Pass Details

Date: 12 May 2025
Orbit: 512 x 554 km, 98.1° (Epoch: 16 June)

Event Time Altitude Azimuth Distance (km) Brightness Sun altitude
Exits shadow 20:47:14 14° 195° (SSW) 1,543 ? -14.3°
Maximum altitude 20:50:13 38° 261° (W) 810 ? -14.6°
Drops below altitude 10° 20:53:47 10° 331° (NNW) 1,761 ? -14.9°
Sets 20:55:59 0° 340° (NNW) 2,649 ? -15.0°
